Weather in Oleksandrivka

Ukraine / Donetsk Region     48°42′27″N   36°54′47″E
temp.,
°C
wind,
m/s
gust,
m/s
humid.,
%
clouds,
%
prec.,
mm/h
press.,
hPa
HPBL,
m
17 june, thu
thu1700:00+19nne4673100 0.0 101287
03:00+18nne41082100 0.1 1012210
06:00+19ne61588100 0.0 1011457
09:00+21ene61386100 0.9 1013670
12:00+20ene51091100 4.6 1014495
15:00+22ene71284100 6.9 10141119
18:00+21ne61387100 1.3 1014467
21:00+20ese51091100 5.2 1015379
18 june, fri
fri1800:00+18ese4998100 4.8 1016448
03:00+17e41096100 5.7 1017481
06:00+17e3698100 0.6 1018316
09:00+19e578994 0.6 1019658
12:00+20e5883100 0.6 1020842
15:00+21e4979100 0.7 1019797
18:00+19ene51288100 1.0 1020783
21:00+18ene41187100 1.1 1020361
19 june, sat
sat1900:00+18ne41186100 0.0 1020391
03:00+17ene6138710 0.0 1019413
06:00+17ene613890 0.0 1020524
09:00+20e811730 0.0 1019664
12:00+23e810671 0.0 1019963
15:00+25e811610 0.0 10191207
18:00+24e812680 0.0 10181074
21:00+21ene71573100 0.0 1018562
20 june, sun
sun2000:00+19ene7167079 0.0 1018442
03:00+18ene7176678 0.0 1018406
06:00+16ene717721 0.0 1018391
09:00+20e81766100 0.0 1017547
12:00+24e81561100 0.0 1017718
15:00+25ene8146199 0.0 1016880
18:00+23ene6147023 0.0 1016830
21:00+20ene513793 0.0 1015354
21 june, mon
mon2100:00+20ene615691 0.0 1014389
03:00+18ene512751 0.0 1014226
06:00+17ene512790 0.0 1014218
09:00+23e713615 0.0 1015532
12:00+27e710480 0.0 1014856
15:00+28e710534 0.0 10141164
18:00+26e5116036 0.0 1014443
21:00+21ene4136965 0.0 1014238